Time,TemperatureF,DewpointF,PressureIn,WindDirection,WindDirectionDegrees,WindSpeedMPH,WindSpeedGustMPH,Humidity,HourlyPrecipIn,Conditions,Clouds,dailyrainin,SolarRadiationWatts/m^2,SoftwareType,DateUTC
2013-07-14 00:05:00,76.4,69.0,29.98,East,97,12.0,16.0,78,0.00,,,0.00,0,weatherlink.com 1.10,2013-07-14 10:05:00,
2013-07-14 00:20:00,76.4,69.0,29.98,East,89,10.0,15.0,78,0.00,,,0.00,0,weatherlink.com 1.10,2013-07-14 10:20:00,
2013-07-14 00:35:00,76.4,69.0,29.98,ESE,114,7.0,14.0,79,0.00,,,0.00,0,weatherlink.com 1.10,2013-07-14 10:35:00,
2013-07-14 00:50:00,76.3,69.0,29.98,East,92,10.0,13.0,79,0.00,,,0.00,0,weatherlink.com 1.10,2013-07-14 10:50:00,
2013-07-14 01:05:00,76.2,69.0,29.97,ESE,106,4.0,13.0,77,0.00,,,0.00,0,weatherlink.com 1.10,2013-07-14 11:05:00,
2013-07-14 01:20:00,76.1,68.0,29.96,East,91,10.0,14.0,77,0.00,,,0.00,0,weatherlink.com 1.10,2013-07-14 11:20:00,
2013-07-14 01:35:00,75.9,68.0,29.96,ENE,74,9.0,15.0,77,0.00,,,0.00,0,weatherlink.com 1.10,2013-07-14 11:35:00,
2013-07-14 01:50:00,75.9,68.0,29.96,East,97,7.0,15.0,77,0.00,,,0.00,0,weatherlink.com 1.10,2013-07-14 11:50:00,
2013-07-14 02:05:00,75.9,69.0,29.95,SE,143,10.0,13.0,78,0.00,,,0.00,0,weatherlink.com 1.10,2013-07-14 12:05:00,
2013-07-14 02:20:00,75.9,69.0,29.95,East,95,8.0,12.0,78,0.00,,,0.00,0,weatherlink.com 1.10,2013-07-14 12:20:00,
2013-07-14 02:36:00,75.8,69.0,29.95,ESE,114,9.0,12.0,78,0.00,,,0.00,0,weatherlink.com 1.10,2013-07-14 12:36:00,
2013-07-14 02:51:00,75.8,68.0,29.95,SE,132,7.0,17.0,77,0.00,,,0.00,0,weatherlink.com 1.10,2013-07-14 12:51:00,
2013-07-14 03:06:00,75.9,69.0,29.94,ESE,105,6.0,15.0,79,0.00,,,0.00,0,weatherlink.com 1.10,2013-07-14 13:06:00,
2013-07-14 03:21:00,75.8,68.0,29.94,ESE,105,5.0,12.0,77,0.00,,,0.00,0,weatherlink.com 1.10,2013-07-14 13:21:00,
2013-07-14 03:36:00,75.7,68.0,29.94,ESE,107,9.0,12.0,78,0.00,,,0.00,0,weatherlink.com 1.10,2013-07-14 13:36:00,
2013-07-14 03:51:00,75.6,69.0,29.94,ESE,119,6.0,13.0,79,0.00,,,0.00,0,weatherlink.com 1.10,2013-07-14 13:51:00,
2013-07-14 04:21:00,75.7,70.0,29.94,East,86,5.0,13.0,81,0.00,,,0.00,0,weatherlink.com 1.10,2013-07-14 14:21:00,
2013-07-14 04:36:00,75.6,69.0,29.94,ENE,72,10.0,12.0,80,0.00,,,0.00,0,weatherlink.com 1.10,2013-07-14 14:36:00,
2013-07-14 04:51:00,75.5,69.0,29.94,SE,140,5.0,11.0,80,0.00,,,0.00,0,weatherlink.com 1.10,2013-07-14 14:51:00,
2013-07-14 05:06:00,75.3,68.0,29.94,ESE,104,4.0,10.0,79,0.00,,,0.00,0,weatherlink.com 1.10,2013-07-14 15:06:00,
2013-07-14 05:21:00,75.2,68.0,29.95,ESE,106,3.0,10.0,78,0.00,,,0.00,0,weatherlink.com 1.10,2013-07-14 15:21:00,
2013-07-14 05:36:00,75.3,68.0,29.95,ENE,59,8.0,11.0,79,0.00,,,0.00,0,weatherlink.com 1.10,2013-07-14 15:36:00,
2013-07-14 05:51:00,75.3,68.0,29.95,East,92,9.0,11.0,79,0.00,,,0.00,0,weatherlink.com 1.10,2013-07-14 15:51:00,
2013-07-14 06:06:00,75.4,69.0,29.96,ESE,109,3.0,9.0,79,0.00,,,0.00,11,weatherlink.com 1.10,2013-07-14 16:06:00,
2013-07-14 06:21:00,76.0,69.0,29.96,East,85,7.0,12.0,79,0.00,,,0.00,72,weatherlink.com 1.10,2013-07-14 16:21:00,
2013-07-14 06:36:00,76.9,69.0,29.96,East,97,7.0,13.0,76,0.00,,,0.00,91,weatherlink.com 1.10,2013-07-14 16:36:00,
2013-07-14 06:51:00,77.2,69.0,29.96,East,88,7.0,13.0,76,0.00,,,0.00,151,weatherlink.com 1.10,2013-07-14 16:51:00,
2013-07-14 07:06:00,78.0,70.0,29.97,East,79,7.0,11.0,75,0.00,,,0.00,216,weatherlink.com 1.10,2013-07-14 17:06:00,
2013-07-14 07:21:00,78.6,70.0,29.97,ESE,105,7.0,11.0,75,0.00,,,0.00,146,weatherlink.com 1.10,2013-07-14 17:21:00,
2013-07-14 07:36:00,78.5,70.0,29.98,East,101,6.0,11.0,75,0.00,,,0.00,371,weatherlink.com 1.10,2013-07-14 17:36:00,
2013-07-14 07:51:00,79.8,70.0,29.98,ESE,114,7.0,9.0,73,0.00,,,0.00,334,weatherlink.com 1.10,2013-07-14 17:51:00,
2013-07-14 08:06:00,79.4,71.0,29.98,East,89,9.0,12.0,75,0.00,,,0.00,605,weatherlink.com 1.10,2013-07-14 18:06:00,
2013-07-14 08:21:00,80.8,71.0,29.98,ESE,102,6.0,11.0,71,0.00,,,0.00,598,weatherlink.com 1.10,2013-07-14 18:21:00,
2013-07-14 08:36:00,81.0,71.0,29.98,ESE,109,4.0,11.0,71,0.00,,,0.00,603,weatherlink.com 1.10,2013-07-14 18:36:00,
2013-07-14 08:51:00,81.6,71.0,29.98,East,101,10.0,11.0,70,0.00,,,0.00,603,weatherlink.com 1.10,2013-07-14 18:51:00,
2013-07-14 09:06:00,82.1,70.0,29.99,East,96,8.0,14.0,67,0.00,,,0.00,668,weatherlink.com 1.10,2013-07-14 19:06:00,
2013-07-14 09:21:00,82.7,71.0,29.99,East,91,7.0,12.0,67,0.00,,,0.00,701,weatherlink.com 1.10,2013-07-14 19:21:00,
2013-07-14 09:37:00,83.1,71.0,29.99,ENE,70,7.0,12.0,66,0.00,,,0.00,742,weatherlink.com 1.10,2013-07-14 19:37:00,
2013-07-14 09:52:00,83.3,71.0,29.99,ENE,68,5.0,12.0,66,0.00,,,0.00,780,weatherlink.com 1.10,2013-07-14 19:52:00,
2013-07-14 10:07:00,83.7,71.0,29.98,ESE,105,7.0,10.0,66,0.00,,,0.00,819,weatherlink.com 1.10,2013-07-14 20:07:00,
2013-07-14 10:22:00,84.3,70.0,29.98,East,86,7.0,10.0,63,0.00,,,0.00,860,weatherlink.com 1.10,2013-07-14 20:22:00,
2013-07-14 10:37:00,85.5,72.0,29.98,ENE,74,4.0,9.0,65,0.00,,,0.00,889,weatherlink.com 1.10,2013-07-14 20:37:00,
2013-07-14 10:52:00,84.4,71.0,29.98,ESE,103,8.0,10.0,64,0.00,,,0.00,1042,weatherlink.com 1.10,2013-07-14 20:52:00,
2013-07-14 11:07:00,84.9,70.0,29.98,East,94,6.0,10.0,62,0.00,,,0.00,276,weatherlink.com 1.10,2013-07-14 21:07:00,
2013-07-14 11:22:00,83.6,72.0,29.98,East,94,11.0,11.0,68,0.00,,,0.00,1239,weatherlink.com 1.10,2013-07-14 21:22:00,
2013-07-14 11:37:00,83.4,70.0,29.98,East,89,8.0,12.0,64,0.00,,,0.00,1120,weatherlink.com 1.10,2013-07-14 21:37:00,
2013-07-14 11:53:00,85.4,72.0,29.98,SE,143,5.0,12.0,65,0.00,,,0.00,1078,weatherlink.com 1.10,2013-07-14 21:53:00,
2013-07-14 12:07:00,84.4,71.0,29.98,East,85,10.0,13.0,64,0.00,,,0.00,408,weatherlink.com 1.10,2013-07-14 22:07:00,
2013-07-14 12:22:00,84.8,72.0,29.97,ESE,114,5.0,11.0,65,0.00,,,0.00,1121,weatherlink.com 1.10,2013-07-14 22:22:00,
2013-07-14 12:52:00,84.2,70.0,29.97,East,100,8.0,10.0,63,0.00,,,0.00,1227,weatherlink.com 1.10,2013-07-14 22:52:00,
2013-07-14 13:07:00,85.3,71.0,29.97,ESE,114,6.0,10.0,62,0.00,,,0.00,555,weatherlink.com 1.10,2013-07-14 23:07:00,
2013-07-14 13:22:00,83.7,70.0,29.97,East,87,10.0,11.0,64,0.00,,,0.00,1085,weatherlink.com 1.10,2013-07-14 23:22:00,
2013-07-14 13:37:00,83.6,70.0,29.96,ENE,72,6.0,12.0,64,0.00,,,0.00,991,weatherlink.com 1.10,2013-07-14 23:37:00,
2013-07-14 13:52:00,84.8,70.0,29.96,East,82,4.0,12.0,61,0.00,,,0.00,963,weatherlink.com 1.10,2013-07-14 23:52:00,
2013-07-14 14:07:00,85.4,71.0,29.96,ENE,70,10.0,11.0,62,0.00,,,0.00,947,weatherlink.com 1.10,2013-07-15 00:07:00,
2013-07-14 14:22:00,84.9,70.0,29.95,East,82,9.0,11.0,61,0.00,,,0.00,919,weatherlink.com 1.10,2013-07-15 00:22:00,
2013-07-14 14:37:00,84.5,70.0,29.95,ENE,72,8.0,12.0,62,0.00,,,0.00,884,weatherlink.com 1.10,2013-07-15 00:37:00,
2013-07-14 14:52:00,85.8,72.0,29.94,ESE,119,6.0,10.0,63,0.00,,,0.00,856,weatherlink.com 1.10,2013-07-15 00:52:00,
2013-07-14 15:07:00,85.2,70.0,29.94,NE,35,3.0,12.0,61,0.00,,,0.00,791,weatherlink.com 1.10,2013-07-15 01:07:00,
2013-07-14 15:22:00,83.6,70.0,29.94,East,82,5.0,12.0,63,0.00,,,0.00,777,weatherlink.com 1.10,2013-07-15 01:22:00,
2013-07-14 15:37:00,84.1,70.0,29.94,East,97,8.0,11.0,63,0.00,,,0.00,733,weatherlink.com 1.10,2013-07-15 01:37:00,
2013-07-14 15:52:00,84.7,70.0,29.94,East,82,2.0,10.0,61,0.00,,,0.00,687,weatherlink.com 1.10,2013-07-15 01:52:00,
2013-07-14 16:07:00,84.5,70.0,29.94,East,94,7.0,11.0,62,0.00,,,0.00,664,weatherlink.com 1.10,2013-07-15 02:07:00,
2013-07-14 16:22:00,83.0,70.0,29.94,ESE,108,7.0,10.0,65,0.00,,,0.00,638,weatherlink.com 1.10,2013-07-15 02:22:00,
2013-07-14 16:37:00,82.9,71.0,29.93,ENE,78,4.0,9.0,67,0.00,,,0.00,564,weatherlink.com 1.10,2013-07-15 02:37:00,
2013-07-14 16:52:00,82.2,71.0,29.93,ENE,66,5.0,9.0,68,0.00,,,0.00,155,weatherlink.com 1.10,2013-07-15 02:52:00,
2013-07-14 17:07:00,82.3,72.0,29.93,East,86,6.0,9.0,70,0.00,,,0.00,174,weatherlink.com 1.10,2013-07-15 03:07:00,
2013-07-14 17:22:00,80.4,70.0,29.93,SE,124,7.0,10.0,71,0.00,,,0.00,174,weatherlink.com 1.10,2013-07-15 03:22:00,
2013-07-14 17:37:00,80.2,70.0,29.94,ENE,76,9.0,10.0,71,0.00,,,0.00,104,weatherlink.com 1.10,2013-07-15 03:37:00,
2013-07-14 17:52:00,79.7,70.0,29.94,SE,141,7.0,11.0,71,0.00,,,0.00,88,weatherlink.com 1.10,2013-07-15 03:52:00,
2013-07-14 18:07:00,79.2,69.0,29.94,East,98,3.0,11.0,72,0.00,,,0.00,69,weatherlink.com 1.10,2013-07-15 04:07:00,
2013-07-14 18:22:00,78.8,69.0,29.94,SE,144,5.0,12.0,72,0.00,,,0.00,44,weatherlink.com 1.10,2013-07-15 04:22:00,
2013-07-14 18:37:00,78.6,69.0,29.94,East,101,7.0,11.0,73,0.00,,,0.00,33,weatherlink.com 1.10,2013-07-15 04:37:00,
2013-07-14 18:52:00,78.3,69.0,29.95,East,87,6.0,10.0,74,0.00,,,0.00,12,weatherlink.com 1.10,2013-07-15 04:52:00,
2013-07-14 19:07:00,78.0,68.0,29.96,East,94,10.0,11.0,71,0.00,,,0.00,5,weatherlink.com 1.10,2013-07-15 05:07:00,
2013-07-14 19:22:00,78.0,69.0,29.96,ESE,114,10.0,11.0,73,0.00,,,0.00,0,weatherlink.com 1.10,2013-07-15 05:22:00,
2013-07-14 19:37:00,77.8,69.0,29.96,East,85,10.0,13.0,74,0.00,,,0.00,0,weatherlink.com 1.10,2013-07-15 05:37:00,
2013-07-14 19:52:00,77.7,69.0,29.97,East,80,9.0,12.0,75,0.00,,,0.00,0,weatherlink.com 1.10,2013-07-15 05:52:00,
2013-07-14 20:07:00,77.6,69.0,29.97,ESE,109,5.0,13.0,75,0.00,,,0.00,0,weatherlink.com 1.10,2013-07-15 06:07:00,
2013-07-14 20:22:00,77.4,69.0,29.98,ESE,105,9.0,13.0,75,0.00,,,0.00,0,weatherlink.com 1.10,2013-07-15 06:22:00,
2013-07-14 20:37:00,77.3,69.0,29.98,SE,124,6.0,13.0,75,0.00,,,0.00,0,weatherlink.com 1.10,2013-07-15 06:37:00,
2013-07-14 20:52:00,77.3,69.0,29.98,ENE,76,6.0,13.0,76,0.00,,,0.00,0,weatherlink.com 1.10,2013-07-15 06:52:00,
2013-07-14 21:07:00,77.4,70.0,29.98,East,93,7.0,14.0,78,0.00,,,0.00,0,weatherlink.com 1.10,2013-07-15 07:07:00,
2013-07-14 21:22:00,77.3,70.0,29.99,ESE,103,8.0,16.0,78,0.00,,,0.00,0,weatherlink.com 1.10,2013-07-15 07:22:00,
2013-07-14 21:38:00,77.2,70.0,29.99,ESE,110,9.0,13.0,78,0.00,,,0.00,0,weatherlink.com 1.10,2013-07-15 07:38:00,
2013-07-14 21:53:00,77.1,70.0,30.00,East,92,8.0,16.0,78,0.00,,,0.00,0,weatherlink.com 1.10,2013-07-15 07:53:00,
2013-07-14 22:08:00,77.0,69.0,30.00,ESE,106,9.0,14.0,77,0.00,,,0.00,0,weatherlink.com 1.10,2013-07-15 08:08:00,
2013-07-14 22:23:00,77.0,69.0,30.00,ESE,107,6.0,17.0,77,0.00,,,0.00,0,weatherlink.com 1.10,2013-07-15 08:23:00,
2013-07-14 22:38:00,76.9,69.0,30.00,SE,131,5.0,16.0,77,0.00,,,0.00,0,weatherlink.com 1.10,2013-07-15 08:38:00,
2013-07-14 22:53:00,76.9,70.0,30.00,East,93,11.0,14.0,78,0.00,,,0.00,0,weatherlink.com 1.10,2013-07-15 08:53:00,
2013-07-14 23:08:00,77.0,70.0,30.00,ENE,68,9.0,14.0,78,0.00,,,0.00,0,weatherlink.com 1.10,2013-07-15 09:08:00,
2013-07-14 23:23:00,76.8,69.0,30.00,ESE,114,12.0,13.0,78,0.00,,,0.00,0,weatherlink.com 1.10,2013-07-15 09:23:00,
2013-07-14 23:38:00,76.7,70.0,30.00,ESE,109,9.0,12.0,79,0.00,,,0.00,0,weatherlink.com 1.10,2013-07-15 09:38:00,
2013-07-14 23:53:00,76.8,70.0,29.99,East,94,8.0,13.0,80,0.00,,,0.00,0,weatherlink.com 1.10,2013-07-15 09:53:00,